Hourly Weather Changsha

Today, 8 August, Saturday

Time Temperature Precipitation Wind Pressure Humidity
00:00 +31°C° 0 mm 2 mps 748 mmHg 67%
01:00 +31°C° 0 mm 3 mps 748 mmHg 68%
02:00 +30°C° 0 mm 2 mps 748 mmHg 70%
03:00 +30°C° 0 mm 3 mps 748 mmHg 71%
04:00 +30°C° 0 mm 3 mps 748 mmHg 72%
05:00 +30°C° 0 mm 3 mps 748 mmHg 73%
06:00 +30°C° 0 mm 3 mps 748 mmHg 71%
07:00 +32°C° 0 mm 4 mps 748 mmHg 70%
08:00 +32°C° 0 mm 5 mps 748 mmHg 69%
09:00 +34°C° 0 mm 5 mps 748 mmHg 65%
10:00 +35°C° 0 mm 5 mps 748 mmHg 61%
11:00 +36°C° 0 mm 5 mps 748 mmHg 57%
12:00 +37°C° 0 mm 5 mps 748 mmHg 54%
13:00 +39°C° 0 mm 5 mps 747 mmHg 51%
14:00 +40°C° 0 mm 5 mps 746 mmHg 49%
15:00 +40°C° 0 mm 4 mps 746 mmHg 50%
16:00 +38°C° 0 mm 4 mps 746 mmHg 52%
17:00 +38°C° 0 mm 3 mps 745 mmHg 53%
18:00 +37°C° 0 mm 3 mps 745 mmHg 56%
19:00 +36°C° 0 mm 2 mps 745 mmHg 58%
20:00 +34°C° 0 mm 1 mps 746 mmHg 61%
21:00 +34°C° 0.1 mm 2 mps 746 mmHg 63%
22:00 +34°C° 0.1 mm 2 mps 746 mmHg 65%
23:00 +32°C° 0.1 mm 2 mps 747 mmHg 68%

Tomorrow, 9 August, Sunday

Time Temperature Precipitation Wind Pressure Humidity
00:00 +32°C° 0.1 mm 2 mps 747 mmHg 69%
01:00 +31°C° 0.1 mm 3 mps 746 mmHg 70%
02:00 +31°C° 0.1 mm 3 mps 746 mmHg 71%
03:00 +31°C° 0.1 mm 3 mps 746 mmHg 72%
04:00 +30°C° 0.1 mm 3 mps 746 mmHg 73%
05:00 +30°C° 0.1 mm 3 mps 746 mmHg 75%
06:00 +30°C° 0 mm 3 mps 746 mmHg 75%
07:00 +30°C° 0 mm 3 mps 746 mmHg 76%
08:00 +30°C° 0 mm 3 mps 747 mmHg 76%
09:00 +31°C° 0 mm 3 mps 747 mmHg 74%
10:00 +31°C° 0 mm 3 mps 747 mmHg 73%
11:00 +32°C° 0 mm 2 mps 747 mmHg 71%
12:00 +34°C° 0.1 mm 2 mps 747 mmHg 67%
13:00 +35°C° 0.1 mm 2 mps 746 mmHg 64%
14:00 +36°C° 0.1 mm 2 mps 746 mmHg 60%
15:00 +36°C° 0.2 mm 2 mps 746 mmHg 61%
16:00 +36°C° 0.2 mm 2 mps 745 mmHg 62%
17:00 +35°C° 0.2 mm 2 mps 745 mmHg 64%
18:00 +34°C° 0.3 mm 2 mps 745 mmHg 69%
19:00 +32°C° 0.3 mm 1 mps 745 mmHg 75%
20:00 +31°C° 0.3 mm 1 mps 745 mmHg 80%
21:00 +30°C° 0.6 mm 1 mps 745 mmHg 81%
22:00 +30°C° 0.6 mm 1 mps 746 mmHg 81%
23:00 +30°C° 0.6 mm 1 mps 746 mmHg 81%

Day after tomorrow, 10 August, Monday

Time Temperature Precipitation Wind Pressure Humidity
00:00 +30°C° 0.5 mm 1 mps 746 mmHg 82%
01:00 +30°C° 0.5 mm 1 mps 746 mmHg 83%
02:00 +30°C° 0.5 mm 2 mps 745 mmHg 83%
03:00 +30°C° 0.3 mm 2 mps 745 mmHg 83%
04:00 +30°C° 0.3 mm 2 mps 746 mmHg 82%
05:00 +30°C° 0.3 mm 3 mps 746 mmHg 82%
06:00 +29°C° 0.4 mm 3 mps 746 mmHg 83%
07:00 +29°C° 0.4 mm 3 mps 747 mmHg 85%
08:00 +29°C° 0.4 mm 3 mps 747 mmHg 86%
09:00 +29°C° 1 mm 3 mps 747 mmHg 86%
10:00 +29°C° 1 mm 3 mps 748 mmHg 87%
11:00 +29°C° 1 mm 2 mps 748 mmHg 87%
12:00 +30°C° 0.2 mm 3 mps 748 mmHg 83%
13:00 +31°C° 0.2 mm 3 mps 747 mmHg 80%
14:00 +33°C° 0.2 mm 3 mps 747 mmHg 77%
15:00 +33°C° 0 mm 3 mps 747 mmHg 78%
16:00 +31°C° 0 mm 3 mps 746 mmHg 79%
17:00 +31°C° 0 mm 2 mps 746 mmHg 80%
18:00 +31°C° 0 mm 2 mps 746 mmHg 81%
19:00 +30°C° 0 mm 2 mps 746 mmHg 82%
20:00 +30°C° 0 mm 2 mps 747 mmHg 83%
21:00 +30°C° 0 mm 2 mps 747 mmHg 83%
22:00 +30°C° 0 mm 2 mps 748 mmHg 83%
23:00 +29°C° 0 mm 2 mps 748 mmHg 82%

11 August, Tuesday

Time Temperature Precipitation Wind Pressure Humidity
00:00 +29°C° 0 mm 2 mps 748 mmHg 82%
01:00 +29°C° 0 mm 2 mps 748 mmHg 81%
02:00 +29°C° 0 mm 2 mps 748 mmHg 80%
03:00 +29°C° 0 mm 2 mps 748 mmHg 80%
04:00 +29°C° 0 mm 2 mps 748 mmHg 80%
05:00 +29°C° 0 mm 2 mps 748 mmHg 79%
06:00 +30°C° 0 mm 3 mps 748 mmHg 77%
07:00 +31°C° 0 mm 3 mps 749 mmHg 74%
08:00 +33°C° 0 mm 3 mps 749 mmHg 72%
09:00 +34°C° 0 mm 4 mps 749 mmHg 66%
10:00 +36°C° 0 mm 4 mps 750 mmHg 60%
11:00 +38°C° 0 mm 4 mps 750 mmHg 54%
12:00 +40°C° 0 mm 4 mps 749 mmHg 51%
13:00 +41°C° 0 mm 4 mps 749 mmHg 48%
14:00 +40°C° 0 mm 3 mps 748 mmHg 46%
15:00 +40°C° 0 mm 3 mps 748 mmHg 47%
16:00 +40°C° 0 mm 3 mps 747 mmHg 48%
17:00 +40°C° 0 mm 3 mps 747 mmHg 49%
18:00 +38°C° 0 mm 3 mps 747 mmHg 52%
19:00 +36°C° 0 mm 3 mps 748 mmHg 55%
20:00 +35°C° 0 mm 2 mps 748 mmHg 58%
21:00 +34°C° 0 mm 3 mps 749 mmHg 60%
22:00 +34°C° 0 mm 3 mps 749 mmHg 61%
23:00 +33°C° 0 mm 3 mps 750 mmHg 63%

12 August, Wednesday

Time Temperature Precipitation Wind Pressure Humidity
00:00 +33°C° 0 mm 3 mps 749 mmHg 64%
01:00 +31°C° 0 mm 3 mps 749 mmHg 65%
02:00 +31°C° 0 mm 2 mps 749 mmHg 67%
03:00 +30°C° 0 mm 2 mps 749 mmHg 68%
04:00 +30°C° 0 mm 2 mps 749 mmHg 69%
05:00 +30°C° 0 mm 2 mps 749 mmHg 70%
06:00 +30°C° 0 mm 3 mps 749 mmHg 69%
07:00 +31°C° 0 mm 3 mps 750 mmHg 68%
08:00 +33°C° 0 mm 4 mps 750 mmHg 68%
09:00 +34°C° 0 mm 4 mps 750 mmHg 63%
10:00 +36°C° 0 mm 4 mps 750 mmHg 57%
11:00 +38°C° 0 mm 4 mps 750 mmHg 52%
12:00 +40°C° 0 mm 4 mps 750 mmHg 50%
13:00 +40°C° 0 mm 4 mps 749 mmHg 47%
14:00 +41°C° 0 mm 4 mps 748 mmHg 44%
15:00 +41°C° 0 mm 4 mps 748 mmHg 45%
16:00 +40°C° 0 mm 3 mps 747 mmHg 46%
17:00 +40°C° 0 mm 3 mps 747 mmHg 47%
18:00 +38°C° 0 mm 3 mps 747 mmHg 50%
19:00 +37°C° 0 mm 3 mps 747 mmHg 53%
20:00 +35°C° 0 mm 3 mps 748 mmHg 56%
21:00 +34°C° 0 mm 3 mps 748 mmHg 58%
22:00 +34°C° 0 mm 3 mps 749 mmHg 60%
23:00 +33°C° 0 mm 4 mps 749 mmHg 62%

13 August, Thursday

Time Temperature Precipitation Wind Pressure Humidity
00:00 +33°C° 0 mm 3 mps 749 mmHg 63%
01:00 +33°C° 0 mm 3 mps 749 mmHg 64%
02:00 +31°C° 0 mm 3 mps 748 mmHg 65%
03:00 +31°C° 0 mm 3 mps 748 mmHg 66%
04:00 +31°C° 0 mm 3 mps 748 mmHg 68%
05:00 +30°C° 0 mm 3 mps 748 mmHg 69%
06:00 +32°C° 0 mm 4 mps 749 mmHg 69%
07:00 +32°C° 0 mm 4 mps 749 mmHg 68%
08:00 +33°C° 0 mm 4 mps 749 mmHg 68%
09:00 +34°C° 0 mm 4 mps 749 mmHg 63%
10:00 +36°C° 0 mm 4 mps 749 mmHg 57%
11:00 +38°C° 0 mm 4 mps 749 mmHg 51%
12:00 +40°C° 0 mm 4 mps 749 mmHg 49%
13:00 +41°C° 0 mm 4 mps 748 mmHg 46%
14:00 +42°C° 0 mm 4 mps 748 mmHg 43%
15:00 +42°C° 0 mm 3 mps 747 mmHg 43%
16:00 +40°C° 0 mm 3 mps 747 mmHg 44%
17:00 +40°C° 0 mm 3 mps 746 mmHg 44%
18:00 +39°C° 0 mm 3 mps 747 mmHg 50%
19:00 +37°C° 0 mm 3 mps 747 mmHg 55%
20:00 +35°C° 0 mm 3 mps 748 mmHg 60%
21:00 +34°C° 0 mm 3 mps 748 mmHg 62%
22:00 +34°C° 0 mm 3 mps 748 mmHg 64%
23:00 +33°C° 0 mm 3 mps 749 mmHg 66%
Show more